Zurück zum Katalog

CARTOSAT-1

AktivWissenschaftSSO
NORAD 28649·PAYLOAD·🇮🇳 India

Gestartet May 5, 2005 von Satish Dhawan Space Centre

Loading…

Nächste Überflüge (nächste 24 Stunden)

TLE

AktuellSource: Space-Track

Epoche: Sep 14, 2026, 01:23 UTC

1 28649U 05017A   26257.05821140  .00001011  00000-0  10697-3 0  9994
2 28649  97.5292 276.0941 0002552 104.0313 256.1190 14.91238304157068

Verfolge CARTOSAT-1 in Echtzeit mit AllMySat

Download on the App Store